contact:dominique.lefevre@mio.osupytheas.fr, maurice.libes@osupytheas.fr, didier.mallarino@osupytheas.fr
Project:EMSO http://www.emso-fr.org/EMSO-France
Depth: 2436.0 m
Title:EMSO Ligure Ouest : Data MII capteur AQUADOPP
Date,Latitude,Longitude,X_East,Y_North,Z_Up,Amplitude_X,Amplitude_Y,Amplitude_Z,Batterie,SoundSpeed,Heading,Pitch,Roll,Pressure,TIS,Speed,Direction
, degrees North, degrees East, m.s-1, m.s-1,m.s-1, 1, 1, 1, Volt, m.s-1, degree, degree, degree, dbar, degree_C, m.s-1, degree
2023-06-01T00:04:03,42.805,6.029,-0.023,-0.004,-0.059,101.0,101.0,101.0,13.3,1505.2,331.9,-0.8,1.8,2471.408,13.29,0.023,260.1
2023-06-01T00:07:03,42.805,6.029,-0.011,0.014,-0.024,102.0,100.0,101.0,13.3,1505.2,323.6,-0.8,1.8,2471.38,13.29,0.017,321.8
2023-06-01T00:10:03,42.805,6.029,-0.015,0.017,-0.023,101.0,101.0,100.0,13.3,1505.2,339.1,-0.8,1.8,2471.384,13.29,0.022,318.6
2023-06-01T00:13:03,42.805,6.029,0.001,0.0,-0.056,101.0,101.0,101.0,13.3,1505.2,324.6,-0.8,1.8,2471.381,13.29,0.001,90.0
2023-06-01T00:16:03,42.805,6.029,0.002,0.008,-0.036,102.0,102.0,101.0,13.4,1505.2,344.9,-0.8,1.8,2471.399,13.29,0.008,14.0
2023-06-01T00:19:03,42.805,6.029,-0.036,0.034,-0.032,102.0,100.0,100.0,13.4,1505.2,331.8,-0.8,1.8,2471.386,13.29,0.049,313.4
2023-06-01T00:22:05,42.805,6.029,-0.008,0.03,-0.021,101.0,101.0,101.0,13.3,1505.2,336.0,-0.8,1.8,2471.348,13.29,0.031,345.1
2023-06-01T00:25:03,42.805,6.029,-0.023,0.001,-0.065,103.0,98.0,100.0,13.4,1505.2,322.9,-0.8,1.8,2471.352,13.29,0.023,272.5
2023-06-01T00:28:03,42.805,6.029,-0.032,0.013,-0.043,102.0,100.0,100.0,13.4,1505.2,328.2,-0.8,1.8,2471.352,13.29,0.034,292.1
2023-06-01T00:31:03,42.805,6.029,-0.011,0.002,-0.038,101.0,100.0,101.0,13.4,1505.2,347.0,-0.8,1.8,2471.349,13.29,0.011,280.3
2023-06-01T00:34:03,42.805,6.029,-0.013,0.013,-0.041,100.0,103.0,100.0,13.4,1505.2,333.4,-0.7,1.8,2471.34,13.29,0.018,315.0
2023-06-01T00:37:03,42.805,6.029,-0.003,0.004,-0.045,104.0,100.0,100.0,13.3,1505.2,336.9,-0.8,1.8,2471.355,13.29,0.005,323.1
2023-06-01T00:40:03,42.805,6.029,-0.004,0.008,-0.065,101.0,102.0,101.0,13.4,1505.2,351.0,-0.8,1.8,2471.362,13.29,0.008,333.4
2023-06-01T00:43:03,42.805,6.029,-0.015,0.029,-0.004,101.0,101.0,100.0,13.4,1505.2,328.2,-0.8,1.8,2471.337,13.29,0.032,332.6
2023-06-01T00:46:03,42.805,6.029,0.005,-0.013,-0.051,102.0,99.0,101.0,13.4,1505.2,330.3,-0.8,1.8,2471.372,13.29,0.013,159.0
2023-06-01T00:49:03,42.805,6.029,-0.029,0.03,-0.016,101.0,101.0,100.0,13.4,1505.2,318.9,-0.8,1.8,2471.321,13.29,0.041,316.0
2023-06-01T00:52:03,42.805,6.029,0.0,0.025,-0.041,100.0,100.0,101.0,13.4,1505.2,328.5,-0.8,1.8,2471.388,13.29,0.025,0.0
2023-06-01T00:55:03,42.805,6.029,-0.019,0.004,-0.053,102.0,99.0,101.0,13.4,1505.2,321.2,-0.8,1.8,2471.326,13.29,0.019,281.9
2023-06-01T00:58:03,42.805,6.029,0.003,0.001,-0.022,101.0,100.0,100.0,13.4,1505.2,328.7,-0.7,1.8,2471.328,13.29,0.003,71.6
2023-06-01T01:04:03,42.805,6.029,0.007,-0.008,-0.031,102.0,100.0,101.0,13.3,1505.2,337.8,-0.7,1.8,2471.386,13.29,0.01,138.8
2023-06-01T01:07:03,42.805,6.029,-0.023,0.024,-0.036,101.0,101.0,100.0,13.3,1505.2,341.5,-0.8,1.8,2471.41,13.29,0.033,316.2
2023-06-01T01:10:03,42.805,6.029,-0.019,0.018,-0.034,101.0,101.0,100.0,13.4,1505.2,331.8,-0.8,1.8,2471.383,13.29,0.026,313.5
2023-06-01T01:13:03,42.805,6.029,-0.027,0.023,-0.009,101.0,100.0,100.0,13.4,1505.2,318.9,-0.8,1.8,2471.427,13.29,0.035,310.4
2023-06-01T01:16:03,42.805,6.029,-0.011,0.014,-0.064,101.0,101.0,100.0,13.4,1505.2,327.0,-0.8,1.8,2471.382,13.29,0.017,321.8
2023-06-01T01:19:03,42.805,6.029,-0.022,0.045,0.007,102.0,102.0,99.0,13.4,1505.2,329.4,-0.8,1.8,2471.387,13.29,0.05,333.9
2023-06-01T01:22:03,42.805,6.029,0.005,0.038,-0.042,101.0,100.0,101.0,13.4,1505.2,334.8,-0.8,1.8,2471.364,13.29,0.038,7.5
2023-06-01T01:25:03,42.805,6.029,-0.021,0.012,-0.028,102.0,100.0,101.0,13.3,1505.2,339.5,-0.8,1.8,2471.389,13.29,0.024,299.7
2023-06-01T01:28:03,42.805,6.029,-0.027,0.017,-0.022,102.0,101.0,101.0,13.3,1505.2,322.5,-0.8,1.8,2471.354,13.29,0.031,302.2
2023-06-01T01:31:03,42.805,6.029,-0.018,0.019,-0.02,101.0,101.0,100.0,13.4,1505.2,327.3,-0.7,1.8,2471.407,13.29,0.026,316.5
2023-06-01T01:34:03,42.805,6.029,0.0,0.023,-0.025,100.0,101.0,100.0,13.4,1505.2,344.4,-0.8,1.8,2471.394,13.29,0.023,0.0
2023-06-01T01:37:03,42.805,6.029,-0.001,0.028,-0.002,99.0,101.0,101.0,13.4,1505.2,337.5,-0.8,1.8,2471.366,13.29,0.028,358.0
2023-06-01T01:40:03,42.805,6.029,-0.011,0.023,-0.038,101.0,100.0,101.0,13.4,1505.2,344.5,-0.8,1.8,2471.363,13.29,0.025,334.4
2023-06-01T01:43:03,42.805,6.029,-0.047,0.019,-0.049,100.0,101.0,101.0,13.4,1505.2,333.0,-0.8,1.8,2471.351,13.29,0.05,292.0
2023-06-01T01:46:03,42.805,6.029,-0.014,0.019,-0.063,103.0,100.0,101.0,13.4,1505.2,340.8,-0.7,1.8,2471.377,13.29,0.023,323.6
2023-06-01T01:49:03,42.805,6.029,-0.02,0.02,-0.01,102.0,102.0,100.0,13.4,1505.2,346.8,-0.8,1.8,2471.387,13.29,0.028,315.0
2023-06-01T01:52:03,42.805,6.029,-0.023,0.016,-0.045,101.0,102.0,100.0,13.3,1505.2,337.9,-0.7,1.8,2471.395,13.29,0.028,304.8
2023-06-01T01:55:03,42.805,6.029,-0.002,0.017,-0.015,101.0,100.0,100.0,13.4,1505.2,333.9,-0.8,1.8,2471.362,13.29,0.017,353.3
2023-06-01T01:58:03,42.805,6.029,-0.009,0.033,-0.035,100.0,100.0,100.0,13.4,1505.2,337.9,-0.8,1.8,2471.39,13.29,0.034,344.7
2023-06-01T02:04:03,42.805,6.029,-0.034,0.019,-0.074,101.0,100.0,100.0,13.4,1505.2,340.4,-0.7,1.8,2471.412,13.29,0.038,299.2
2023-06-01T02:07:03,42.805,6.029,0.004,0.016,-0.031,101.0,100.0,101.0,13.3,1505.2,338.2,-0.8,1.8,2471.453,13.29,0.016,14.0
2023-06-01T02:10:03,42.805,6.029,-0.022,0.001,-0.056,102.0,101.0,100.0,13.3,1505.2,324.6,-0.7,1.8,2471.45,13.29,0.022,272.6
2023-06-01T02:13:03,42.805,6.029,0.017,0.024,0.002,101.0,100.0,101.0,13.4,1505.2,326.5,-0.8,1.8,2471.405,13.29,0.029,35.3
2023-06-01T02:16:03,42.805,6.029,-0.004,0.016,-0.023,100.0,101.0,101.0,13.3,1505.2,346.8,-0.8,1.8,2471.415,13.29,0.016,346.0
2023-06-01T02:19:03,42.805,6.029,-0.005,0.027,-0.023,100.0,103.0,102.0,13.4,1505.2,343.2,-0.8,1.8,2471.441,13.29,0.027,349.5
2023-06-01T02:22:03,42.805,6.029,-0.027,0.029,0.0,100.0,102.0,101.0,13.4,1505.2,328.6,-0.7,1.8,2471.399,13.29,0.039,317.0
2023-06-01T02:25:03,42.805,6.029,0.0,0.017,-0.033,101.0,100.0,102.0,13.4,1505.2,348.9,-0.8,1.8,2471.407,13.29,0.017,0.0
2023-06-01T02:28:03,42.805,6.029,0.007,0.008,-0.029,101.0,101.0,102.0,13.3,1505.2,337.9,-0.8,1.8,2471.406,13.29,0.01,41.2
2023-06-01T02:31:03,42.805,6.029,-0.019,0.029,-0.028,102.0,101.0,100.0,13.4,1505.2,341.2,-0.8,1.8,2471.389,13.29,0.034,326.8
2023-06-01T02:34:03,42.805,6.029,-0.017,0.023,-0.015,102.0,102.0,100.0,13.4,1505.2,327.5,-0.7,1.8,2471.416,13.29,0.028,323.5
2023-06-01T02:37:03,42.805,6.029,0.013,0.008,-0.023,101.0,101.0,99.0,13.3,1505.2,336.9,-0.8,1.8,2471.433,13.29,0.015,58.4
2023-06-01T02:40:03,42.805,6.029,0.008,0.004,-0.002,102.0,101.0,102.0,13.3,1505.2,337.1,-0.8,1.8,2471.409,13.29,0.008,63.4
2023-06-01T02:43:03,42.805,6.029,-0.014,0.011,-0.06,102.0,101.0,101.0,13.4,1505.2,322.3,-0.8,1.9,2471.423,13.29,0.017,308.2
2023-06-01T02:46:03,42.805,6.029,-0.018,0.0,-0.049,102.0,101.0,101.0,13.4,1505.2,325.4,-0.7,1.8,2471.459,13.29,0.018,270.0
2023-06-01T02:49:03,42.805,6.029,-0.006,0.007,-0.057,102.0,100.0,102.0,13.4,1505.2,319.9,-0.8,1.8,2471.413,13.29,0.009,319.4
2023-06-01T02:52:03,42.805,6.029,-0.012,0.002,-0.017,102.0,101.0,100.0,13.3,1505.2,332.1,-0.8,1.8,2471.433,13.29,0.012,279.5
2023-06-01T02:55:04,42.805,6.029,0.004,0.009,-0.024,101.0,101.0,101.0,13.4,1505.2,343.0,-0.7,1.8,2471.433,13.29,0.009,24.0
2023-06-01T02:58:03,42.805,6.029,-0.014,0.011,-0.045,102.0,102.0,101.0,13.4,1505.2,330.9,-0.8,1.8,2471.444,13.29,0.017,308.2
2023-06-01T03:04:03,42.805,6.029,-0.02,0.007,-0.025,102.0,101.0,101.0,13.3,1505.2,343.7,-0.8,1.8,2471.452,13.29,0.021,289.3
2023-06-01T03:07:03,42.805,6.029,-0.02,0.024,-0.01,102.0,102.0,100.0,13.4,1505.2,323.6,-0.7,1.8,2471.48,13.29,0.031,320.2
2023-06-01T03:10:03,42.805,6.029,0.011,0.0,-0.01,102.0,100.0,102.0,13.3,1505.2,330.3,-0.7,1.8,2471.483,13.29,0.011,90.0
2023-06-01T03:13:03,42.805,6.029,-0.025,0.011,-0.054,102.0,100.0,101.0,13.4,1505.2,342.8,-0.7,1.8,2471.433,13.29,0.027,293.7
2023-06-01T03:16:03,42.805,6.029,-0.016,0.018,0.0,102.0,104.0,101.0,13.4,1505.2,335.2,-0.8,1.8,2471.454,13.29,0.024,318.4
2023-06-01T03:19:03,42.805,6.029,-0.019,0.018,-0.041,102.0,102.0,101.0,13.4,1505.2,344.2,-0.7,1.8,2471.442,13.29,0.026,313.5
2023-06-01T03:22:03,42.805,6.029,0.001,0.008,0.001,102.0,100.0,103.0,13.4,1505.2,320.5,-0.7,1.8,2471.46,13.29,0.008,7.1
2023-06-01T03:25:03,42.805,6.029,-0.017,0.011,-0.054,101.0,103.0,101.0,13.4,1505.2,335.7,-0.8,1.8,2471.469,13.29,0.02,302.9
2023-06-01T03:28:03,42.805,6.029,-0.005,0.013,-0.005,102.0,103.0,101.0,13.4,1505.2,326.0,-0.8,1.8,2471.494,13.29,0.013,339.0
2023-06-01T03:31:03,42.805,6.029,0.0,-0.001,-0.055,103.0,102.0,101.0,13.3,1505.2,344.4,-0.7,1.8,2471.467,13.29,0.001,180.0
2023-06-01T03:34:03,42.805,6.029,0.001,-0.01,-0.022,102.0,102.0,101.0,13.4,1505.2,332.9,-0.7,1.8,2471.454,13.29,0.01,174.3
2023-06-01T03:37:03,42.805,6.029,-0.001,0.004,0.004,104.0,103.0,101.0,13.4,1505.2,334.4,-0.7,1.8,2471.424,13.29,0.004,346.0
2023-06-01T03:40:03,42.805,6.029,-0.001,0.003,-0.01,102.0,103.0,101.0,13.3,1505.2,336.6,-0.7,1.8,2471.473,13.29,0.003,341.6
2023-06-01T03:43:03,42.805,6.029,-0.006,0.001,-0.045,101.0,104.0,102.0,13.4,1505.2,323.1,-0.8,1.8,2471.448,13.29,0.006,279.5
2023-06-01T03:46:03,42.805,6.029,-0.013,0.015,-0.028,102.0,102.0,101.0,13.3,1505.2,321.3,-0.8,1.8,2471.456,13.29,0.019,319.1
2023-06-01T03:49:03,42.805,6.029,-0.015,0.007,-0.051,101.0,104.0,100.0,13.4,1505.2,329.0,-0.8,1.8,2471.466,13.29,0.016,295.0
2023-06-01T03:52:03,42.805,6.029,-0.005,0.008,-0.042,104.0,102.0,101.0,13.3,1505.2,340.2,-0.8,1.8,2471.457,13.29,0.009,328.0
2023-06-01T03:55:03,42.805,6.029,-0.02,0.0,-0.053,102.0,102.0,101.0,13.4,1505.2,334.3,-0.7,1.8,2471.45,13.29,0.02,270.0
2023-06-01T03:58:03,42.805,6.029,-0.016,0.023,-0.008,102.0,103.0,101.0,13.3,1505.2,325.7,-0.8,1.8,2471.439,13.29,0.028,325.2
2023-06-01T04:04:03,42.805,6.029,-0.023,0.028,-0.061,102.0,102.0,101.0,13.4,1505.2,336.0,-0.7,1.8,2471.518,13.29,0.036,320.6
2023-06-01T04:07:03,42.805,6.029,-0.037,0.01,-0.025,103.0,101.0,102.0,13.3,1505.2,324.7,-0.8,1.8,2471.513,13.29,0.038,285.1
2023-06-01T04:10:03,42.805,6.029,-0.012,0.013,-0.03,102.0,101.0,102.0,13.4,1505.2,339.4,-0.8,1.8,2471.483,13.29,0.017,317.3
2023-06-01T04:13:03,42.805,6.029,-0.001,0.026,-0.033,103.0,103.0,102.0,13.4,1505.2,330.8,-0.7,1.8,2471.475,13.29,0.026,357.8
2023-06-01T04:16:03,42.805,6.029,-0.013,0.007,-0.026,102.0,103.0,101.0,13.3,1505.2,337.1,-0.8,1.8,2471.499,13.29,0.014,298.3
2023-06-01T04:19:03,42.805,6.029,-0.032,0.029,-0.035,102.0,102.0,101.0,13.3,1505.2,320.3,-0.7,1.8,2471.497,13.29,0.043,312.2
2023-06-01T04:22:03,42.805,6.029,-0.019,0.025,-0.013,102.0,104.0,104.0,13.4,1505.2,322.4,-0.8,1.8,2471.47,13.29,0.031,322.8
2023-06-01T04:25:03,42.805,6.029,0.015,0.014,-0.009,103.0,103.0,102.0,13.3,1505.2,345.1,-0.8,1.8,2471.465,13.29,0.02,47.0
2023-06-01T04:28:03,42.805,6.029,-0.019,0.016,-0.067,103.0,102.0,102.0,13.4,1505.2,335.0,-0.8,1.8,2471.471,13.29,0.024,310.1
2023-06-01T04:31:03,42.805,6.029,-0.002,0.039,-0.01,102.0,102.0,101.0,13.4,1505.2,346.5,-0.8,1.8,2471.477,13.29,0.039,357.1
2023-06-01T04:34:03,42.805,6.029,-0.024,0.026,-0.027,102.0,102.0,102.0,13.4,1505.2,329.9,-0.7,1.8,2471.482,13.29,0.035,317.3
2023-06-01T04:37:03,42.805,6.029,0.0,0.004,0.003,101.0,102.0,102.0,13.3,1505.2,334.3,-0.8,1.8,2471.489,13.29,0.004,0.0
2023-06-01T04:40:03,42.805,6.029,-0.025,-0.004,-0.047,103.0,101.0,101.0,13.4,1505.2,325.3,-0.8,1.8,2471.451,13.29,0.025,260.9
2023-06-01T04:43:03,42.805,6.029,-0.006,0.009,-0.028,103.0,102.0,102.0,13.4,1505.2,342.8,-0.8,1.8,2471.501,13.29,0.01,326.3
2023-06-01T04:46:03,42.805,6.029,-0.016,0.025,-0.015,102.0,101.0,102.0,13.3,1505.2,332.4,-0.7,1.8,2471.491,13.29,0.029,327.4
2023-06-01T04:49:03,42.805,6.029,-0.008,0.01,-0.022,102.0,101.0,102.0,13.3,1505.2,327.8,-0.7,1.8,2471.461,13.29,0.012,321.3
2023-06-01T04:52:03,42.805,6.029,-0.001,0.01,-0.047,101.0,103.0,102.0,13.4,1505.2,335.1,-0.8,1.8,2471.495,13.29,0.01,354.3
2023-06-01T04:55:03,42.805,6.029,-0.013,0.03,0.016,101.0,102.0,102.0,13.3,1505.2,335.2,-0.8,1.8,2471.476,13.29,0.032,336.6
2023-06-01T04:58:03,42.805,6.029,-0.014,0.009,-0.06,102.0,101.0,102.0,13.4,1505.2,330.3,-0.7,1.8,2471.505,13.29,0.016,302.7
2023-06-01T05:04:03,42.805,6.029,-0.022,0.013,-0.044,102.0,102.0,101.0,13.4,1505.2,332.3,-0.8,1.8,2471.501,13.29,0.025,300.6
2023-06-01T05:07:03,42.805,6.029,-0.016,0.02,-0.005,102.0,102.0,101.0,13.4,1505.2,333.9,-0.8,1.8,2471.501,13.29,0.025,321.3
2023-06-01T05:10:03,42.805,6.029,-0.035,-0.007,-0.042,103.0,102.0,102.0,13.4,1505.2,325.7,-0.8,1.8,2471.531,13.29,0.035,258.7
2023-06-01T05:13:03,42.805,6.029,0.002,0.016,-0.024,103.0,103.0,101.0,13.4,1505.2,327.8,-0.7,1.8,2471.497,13.29,0.016,7.1
2023-06-01T05:16:03,42.805,6.029,-0.015,0.018,-0.036,103.0,103.0,101.0,13.3,1505.2,334.3,-0.8,1.8,2471.539,13.29,0.023,320.2
2023-06-01T05:19:03,42.805,6.029,-0.002,0.001,-0.02,102.0,103.0,101.0,13.3,1505.2,331.2,-0.8,1.8,2471.476,13.29,0.002,296.6
2023-06-01T05:22:03,42.805,6.029,-0.028,0.015,-0.022,102.0,102.0,103.0,13.4,1505.2,332.9,-0.7,1.8,2471.509,13.29,0.031,298.2
2023-06-01T05:25:03,42.805,6.029,0.002,0.004,-0.012,101.0,103.0,101.0,13.3,1505.2,324.8,-0.7,1.9,2471.501,13.29,0.004,26.6
2023-06-01T05:28:03,42.805,6.029,-0.008,0.015,-0.01,102.0,103.0,101.0,13.4,1505.2,341.9,-0.7,1.8,2471.448,13.29,0.017,331.9
2023-06-01T05:31:03,42.805,6.029,-0.012,0.005,-0.015,103.0,102.0,101.0,13.4,1505.2,327.3,-0.8,1.8,2471.466,13.29,0.013,292.6
2023-06-01T05:34:03,42.805,6.029,-0.017,0.006,-0.042,102.0,101.0,101.0,13.4,1505.2,332.4,-0.8,1.8,2471.473,13.29,0.018,289.4
2023-06-01T05:37:03,42.805,6.029,0.0,0.031,-0.014,102.0,102.0,102.0,13.4,1505.2,327.6,-0.8,1.8,2471.499,13.29,0.03,0.0
2023-06-01T05:40:03,42.805,6.029,0.001,0.02,-0.03,102.0,101.0,102.0,13.4,1505.2,346.8,-0.7,1.8,2471.513,13.29,0.02,2.9
2023-06-01T05:43:03,42.805,6.029,0.0,-0.014,-0.049,103.0,101.0,101.0,13.4,1505.2,343.6,-0.8,1.8,2471.484,13.29,0.014,180.0
2023-06-01T05:46:03,42.805,6.029,-0.005,0.014,-0.008,103.0,103.0,103.0,13.3,1505.2,317.6,-0.8,1.8,2471.466,13.29,0.014,340.4
2023-06-01T05:49:03,42.805,6.029,0.001,0.011,-0.03,104.0,101.0,101.0,13.4,1505.2,332.4,-0.8,1.8,2471.481,13.29,0.011,5.2
2023-06-01T05:52:03,42.805,6.029,0.016,0.02,-0.003,101.0,104.0,101.0,13.3,1505.2,325.7,-0.8,1.8,2471.462,13.29,0.025,38.7
2023-06-01T05:55:03,42.805,6.029,0.001,0.0,-0.023,102.0,103.0,102.0,13.3,1505.2,348.4,-0.7,1.8,2471.482,13.29,0.001,90.0
2023-06-01T05:58:03,42.805,6.029,-0.016,0.011,-0.038,102.0,102.0,101.0,13.4,1505.2,325.0,-0.8,1.8,2471.441,13.29,0.019,304.5
2023-06-01T06:04:03,42.805,6.029,-0.006,0.012,-0.021,102.0,102.0,102.0,13.4,1505.2,329.9,-0.8,1.8,2471.528,13.29,0.013,333.4
2023-06-01T06:07:03,42.805,6.029,-0.011,0.011,-0.027,103.0,102.0,101.0,13.4,1505.2,343.6,-0.8,1.8,2471.494,13.29,0.015,315.0
2023-06-01T06:10:03,42.805,6.029,0.019,0.02,-0.025,104.0,99.0,100.0,13.4,1505.2,323.7,-0.8,1.8,2471.481,13.29,0.027,43.5
2023-06-01T06:13:03,42.805,6.029,-0.01,0.037,-0.013,103.0,103.0,101.0,13.4,1505.2,327.9,-0.7,1.8,2471.46,13.29,0.038,344.9
2023-06-01T06:16:03,42.805,6.029,0.005,0.009,-0.049,102.0,102.0,102.0,13.4,1505.2,347.8,-0.8,1.8,2471.46,13.29,0.01,29.1
2023-06-01T06:19:03,42.805,6.029,0.0,0.007,-0.007,102.0,102.0,103.0,13.4,1505.2,321.3,-0.8,1.8,2471.477,13.29,0.007,0.0
2023-06-01T06:22:03,42.805,6.029,0.007,-0.005,-0.005,104.0,102.0,102.0,13.4,1505.2,340.1,-0.7,1.8,2471.507,13.29,0.008,125.5
2023-06-01T06:25:03,42.805,6.029,-0.02,0.011,-0.041,104.0,102.0,101.0,13.4,1505.2,332.5,-0.8,1.8,2471.468,13.29,0.022,298.8
2023-06-01T06:28:03,42.805,6.029,-0.009,0.017,-0.042,104.0,102.0,103.0,13.4,1505.2,330.3,-0.8,1.8,2471.477,13.29,0.019,332.1
2023-06-01T06:31:03,42.805,6.029,-0.008,0.02,-0.002,102.0,102.0,101.0,13.4,1505.2,345.1,-0.8,1.8,2471.422,13.29,0.021,338.2
2023-06-01T06:34:03,42.805,6.029,0.014,0.017,0.023,104.0,101.0,102.0,13.4,1505.2,345.9,-0.8,1.8,2471.457,13.29,0.022,39.5
2023-06-01T06:37:03,42.805,6.029,-0.028,0.006,-0.045,102.0,102.0,101.0,13.3,1505.2,339.8,-0.8,1.8,2471.47,13.29,0.028,282.1
2023-06-01T06:40:03,42.805,6.029,-0.022,0.01,-0.061,102.0,101.0,102.0,13.3,1505.2,326.3,-0.7,1.8,2471.418,13.29,0.024,294.4
2023-06-01T06:43:03,42.805,6.029,-0.01,0.019,-0.027,102.0,103.0,101.0,13.3,1505.2,320.6,-0.8,1.8,2471.468,13.29,0.021,332.2
2023-06-01T06:46:03,42.805,6.029,-0.014,0.018,-0.049,103.0,102.0,102.0,13.4,1505.2,330.3,-0.7,1.8,2471.427,13.29,0.022,322.1
2023-06-01T06:49:03,42.805,6.029,0.013,0.018,-0.013,102.0,103.0,102.0,13.4,1505.2,325.0,-0.8,1.8,2471.459,13.29,0.022,35.8
2023-06-01T06:52:03,42.805,6.029,-0.012,0.014,-0.033,103.0,102.0,101.0,13.4,1505.2,331.4,-0.8,1.8,2471.47,13.29,0.018,319.4
2023-06-01T06:55:03,42.805,6.029,-0.02,0.012,-0.049,102.0,102.0,101.0,13.4,1505.2,316.9,-0.8,1.8,2471.466,13.29,0.023,301.0
2023-06-01T06:58:03,42.805,6.029,0.018,-0.003,-0.024,102.0,103.0,102.0,13.4,1505.2,330.9,-0.8,1.8,2471.403,13.29,0.018,99.5
2023-06-01T07:04:03,42.805,6.029,-0.002,0.001,-0.032,102.0,103.0,100.0,13.4,1505.2,344.3,-0.8,1.8,2471.523,13.29,0.002,296.6
2023-06-01T07:07:03,42.805,6.029,0.0,-0.004,-0.03,102.0,103.0,101.0,13.4,1505.2,321.3,-0.8,1.8,2471.484,13.29,0.004,180.0
2023-06-01T07:10:03,42.805,6.029,0.015,0.036,-0.003,102.0,102.0,101.0,13.3,1505.2,337.5,-0.8,1.8,2471.463,13.29,0.039,22.6
2023-06-01T07:13:03,42.805,6.029,-0.017,0.013,-0.018,102.0,102.0,103.0,13.4,1505.2,330.0,-0.7,1.8,2471.467,13.29,0.021,307.4
2023-06-01T07:16:03,42.805,6.029,-0.012,-0.004,-0.029,103.0,101.0,101.0,13.3,1505.2,336.5,-0.8,1.8,2471.428,13.29,0.012,251.6
2023-06-01T07:19:03,42.805,6.029,-0.01,0.012,-0.034,104.0,102.0,101.0,13.3,1505.2,323.1,-0.8,1.8,2471.436,13.29,0.015,320.2
2023-06-01T07:22:03,42.805,6.029,0.009,0.021,-0.019,102.0,101.0,102.0,13.4,1505.2,335.8,-0.8,1.8,2471.419,13.29,0.022,23.2
2023-06-01T07:25:03,42.805,6.029,0.02,-0.017,-0.043,102.0,103.0,100.0,13.4,1505.2,347.3,-0.8,1.8,2471.443,13.29,0.026,130.4
2023-06-01T07:28:03,42.805,6.029,-0.004,0.014,-0.018,102.0,102.0,102.0,13.4,1505.2,323.1,-0.7,1.8,2471.421,13.29,0.014,344.1
2023-06-01T07:31:03,42.805,6.029,-0.013,0.016,-0.022,103.0,102.0,101.0,13.4,1505.2,329.2,-0.8,1.8,2471.391,13.29,0.02,320.9
2023-06-01T07:34:03,42.805,6.029,0.008,0.006,-0.017,103.0,103.0,100.0,13.4,1505.2,317.7,-0.8,1.8,2471.463,13.29,0.01,53.1
2023-06-01T07:37:03,42.805,6.029,0.01,0.015,0.0,102.0,102.0,102.0,13.3,1505.2,337.9,-0.8,1.8,2471.393,13.29,0.018,33.7
2023-06-01T07:40:03,42.805,6.029,0.012,0.016,-0.02,102.0,102.0,100.0,13.3,1505.2,341.1,-0.7,1.8,2471.4,13.29,0.02,36.9
2023-06-01T07:43:03,42.805,6.029,-0.005,0.007,-0.025,102.0,102.0,101.0,13.3,1505.2,348.0,-0.8,1.8,2471.391,13.29,0.008,324.5
2023-06-01T07:46:03,42.805,6.029,-0.006,0.017,-0.032,103.0,102.0,102.0,13.3,1505.2,326.6,-0.8,1.8,2471.426,13.29,0.018,340.6
2023-06-01T07:49:03,42.805,6.029,0.0,-0.013,-0.006,101.0,102.0,103.0,13.3,1505.2,325.1,-0.7,1.8,2471.363,13.29,0.013,180.0
2023-06-01T07:52:03,42.805,6.029,-0.007,-0.003,-0.031,102.0,102.0,102.0,13.4,1505.2,318.2,-0.7,1.8,2471.435,13.29,0.007,246.8
2023-06-01T07:55:03,42.805,6.029,-0.005,0.01,-0.007,103.0,102.0,101.0,13.3,1505.2,330.5,-0.8,1.9,2471.431,13.29,0.011,333.4
2023-06-01T07:58:03,42.805,6.029,-0.026,0.021,-0.059,102.0,104.0,101.0,13.3,1505.2,338.5,-0.8,1.8,2471.418,13.29,0.033,308.9
2023-06-01T08:04:03,42.805,6.029,0.005,-0.003,-0.024,102.0,102.0,102.0,13.4,1505.2,342.7,-0.8,1.8,2471.469,13.29,0.005,121.0
2023-06-01T08:07:03,42.805,6.029,-0.001,0.021,-0.035,103.0,102.0,101.0,13.4,1505.2,323.7,-0.7,1.8,2471.45,13.29,0.021,357.3
2023-06-01T08:10:03,42.805,6.029,-0.013,0.024,-0.037,102.0,102.0,101.0,13.4,1505.2,329.3,-0.8,1.8,2471.426,13.29,0.027,331.6
2023-06-01T08:13:03,42.805,6.029,0.003,0.001,-0.034,103.0,102.0,101.0,13.4,1505.2,337.1,-0.8,1.8,2471.428,13.29,0.003,71.6
2023-06-01T08:16:03,42.805,6.029,-0.01,0.008,-0.031,102.0,101.0,101.0,13.3,1505.2,333.0,-0.8,1.8,2471.363,13.29,0.012,308.7
2023-06-01T08:19:03,42.805,6.029,0.02,0.008,-0.014,101.0,104.0,102.0,13.3,1505.2,334.3,-0.8,1.8,2471.408,13.29,0.021,68.2
2023-06-01T08:22:03,42.805,6.029,-0.016,-0.009,-0.036,102.0,104.0,101.0,13.4,1505.2,348.2,-0.7,1.8,2471.391,13.29,0.018,240.6
2023-06-01T08:25:03,42.805,6.029,0.006,-0.002,-0.035,102.0,103.0,102.0,13.4,1505.2,325.0,-0.8,1.8,2471.387,13.29,0.006,108.4
2023-06-01T08:28:03,42.805,6.029,0.007,0.019,-0.017,103.0,102.0,102.0,13.3,1505.2,325.7,-0.8,1.8,2471.359,13.29,0.02,20.2
2023-06-01T08:31:03,42.805,6.029,0.005,0.009,-0.029,102.0,102.0,101.0,13.4,1505.2,330.9,-0.7,1.8,2471.36,13.29,0.01,29.1
2023-06-01T08:34:03,42.805,6.029,-0.017,0.013,-0.046,103.0,102.0,101.0,13.3,1505.2,336.9,-0.8,1.8,2471.391,13.29,0.021,307.4
2023-06-01T08:37:03,42.805,6.029,0.006,0.007,0.0,102.0,102.0,101.0,13.4,1505.2,327.4,-0.8,1.8,2471.409,13.29,0.009,40.6
2023-06-01T08:40:03,42.805,6.029,-0.013,0.001,-0.01,104.0,102.0,102.0,13.3,1505.2,342.3,-0.8,1.8,2471.383,13.29,0.013,274.4
2023-06-01T08:43:03,42.805,6.029,-0.003,0.008,-0.005,102.0,103.0,102.0,13.4,1505.2,325.5,-0.8,1.8,2471.395,13.29,0.008,339.4
2023-06-01T08:46:03,42.805,6.029,0.009,-0.009,-0.043,101.0,103.0,101.0,13.4,1505.2,328.2,-0.7,1.8,2471.369,13.29,0.012,135.0
2023-06-01T08:49:03,42.805,6.029,0.0,0.023,0.006,104.0,102.0,101.0,13.3,1505.2,320.0,-0.8,1.8,2471.341,13.29,0.023,0.0
2023-06-01T08:52:03,42.805,6.029,-0.011,0.006,-0.058,102.0,102.0,101.0,13.4,1505.2,333.4,-0.7,1.8,2471.368,13.29,0.012,298.6
2023-06-01T08:55:03,42.805,6.029,-0.006,0.009,-0.046,101.0,104.0,101.0,13.4,1505.2,342.3,-0.8,1.8,2471.369,13.29,0.01,326.3
2023-06-01T08:58:03,42.805,6.029,-0.014,0.014,-0.017,103.0,102.0,103.0,13.4,1505.2,322.5,-0.8,1.8,2471.34,13.29,0.019,315.0
2023-06-01T09:04:03,42.805,6.029,-0.004,0.001,-0.018,102.0,102.0,102.0,13.4,1505.2,341.9,-0.7,1.8,2471.374,13.29,0.004,284.0
2023-06-01T09:07:03,42.805,6.029,-0.019,0.008,-0.049,103.0,104.0,101.0,13.4,1505.2,324.8,-0.7,1.8,2471.388,13.29,0.02,292.8
2023-06-01T09:10:03,42.805,6.029,0.003,0.0,-0.042,103.0,102.0,103.0,13.4,1505.2,329.8,-0.7,1.8,2471.369,13.29,0.003,90.0
2023-06-01T09:13:03,42.805,6.029,-0.015,-0.001,-0.02,104.0,103.0,101.0,13.3,1505.2,326.7,-0.8,1.8,2471.361,13.29,0.015,266.2
2023-06-01T09:16:03,42.805,6.029,-0.023,0.035,-0.027,103.0,102.0,102.0,13.3,1505.2,336.6,-0.8,1.9,2471.362,13.29,0.041,326.7
2023-06-01T09:19:03,42.805,6.029,-0.009,0.013,-0.029,102.0,102.0,101.0,13.4,1505.2,345.4,-0.8,1.8,2471.372,13.29,0.015,325.3
2023-06-01T09:22:03,42.805,6.029,-0.014,0.016,-0.017,102.0,102.0,101.0,13.4,1505.2,326.9,-0.7,1.8,2471.334,13.29,0.021,318.8
2023-06-01T09:25:03,42.805,6.029,-0.016,0.0,-0.055,103.0,100.0,103.0,13.3,1505.2,342.7,-0.8,1.8,2471.333,13.29,0.016,270.0
2023-06-01T09:28:03,42.805,6.029,-0.023,0.022,-0.013,102.0,101.0,100.0,13.4,1505.2,322.0,-0.8,1.8,2471.38,13.29,0.031,313.7
2023-06-01T09:31:03,42.805,6.029,-0.003,0.007,-0.035,101.0,101.0,102.0,13.4,1505.2,334.4,-0.8,1.8,2471.344,13.29,0.007,336.8
2023-06-01T09:34:03,42.805,6.029,-0.009,0.014,0.001,102.0,102.0,101.0,13.4,1505.2,332.9,-0.7,1.8,2471.335,13.29,0.016,327.3
2023-06-01T09:37:03,42.805,6.029,0.002,-0.003,-0.018,102.0,102.0,102.0,13.4,1505.2,330.9,-0.7,1.8,2471.335,13.29,0.003,146.3
2023-06-01T09:40:03,42.805,6.029,-0.002,0.015,-0.019,100.0,102.0,100.0,13.4,1505.2,327.6,-0.7,1.8,2471.376,13.29,0.015,352.4
2023-06-01T09:43:03,42.805,6.029,0.007,0.003,-0.022,102.0,101.0,102.0,13.3,1505.2,349.7,-0.7,1.8,2471.313,13.29,0.007,66.8
2023-06-01T09:46:03,42.805,6.029,0.011,0.01,-0.036,101.0,101.0,100.0,13.3,1505.2,348.0,-0.8,1.8,2471.323,13.29,0.014,47.7
2023-06-01T09:49:03,42.805,6.029,-0.017,0.045,-0.006,103.0,101.0,101.0,13.4,1505.2,339.0,-0.8,1.8,2471.302,13.29,0.048,339.3
2023-06-01T09:52:04,42.805,6.029,0.009,0.007,-0.005,102.0,103.0,100.0,13.4,1505.2,330.7,-0.7,1.8,2471.337,13.29,0.011,52.1
2023-06-01T09:55:03,42.805,6.029,0.013,0.013,0.0,102.0,101.0,101.0,13.3,1505.2,338.9,-0.8,1.8,2471.292,13.29,0.018,45.0
2023-06-01T09:58:03,42.805,6.029,-0.011,-0.002,-0.05,102.0,102.0,101.0,13.3,1505.2,338.9,-0.8,1.8,2471.333,13.29,0.011,259.7